Time,TemperatureF,DewpointF,PressureIn,WindDirection,WindDirectionDegrees,WindSpeedMPH,WindSpeedGustMPH,Humidity,HourlyPrecipIn,Conditions,Clouds,dailyrainin,SoftwareType,DateUTC
2013-02-04 00:04:00,50.3,31.8,30.06,WSW,237,0.0,0.0,49,0.00,,,0.00,Wunderground v.1.15,2013-02-04 08:04:00,
2013-02-04 00:10:00,49.5,31.6,30.06,WSW,237,0.0,2.0,50,0.00,,,0.00,Wunderground v.1.15,2013-02-04 08:10:00,
2013-02-04 00:16:00,48.9,31.1,30.06,WSW,237,2.0,4.0,50,0.00,,,0.00,Wunderground v.1.15,2013-02-04 08:16:00,
2013-02-04 00:22:00,48.5,31.2,30.05,SW,236,4.0,5.0,51,0.00,,,0.00,Wunderground v.1.15,2013-02-04 08:22:00,
2013-02-04 00:28:00,48.3,31.0,30.05,SW,236,3.0,5.0,51,0.00,,,0.00,Wunderground v.1.15,2013-02-04 08:28:00,
2013-02-04 00:34:00,48.2,30.9,30.05,SW,236,1.0,2.0,51,0.00,,,0.00,Wunderground v.1.15,2013-02-04 08:34:00,
2013-02-04 00:40:00,48.1,30.8,30.05,SW,236,0.0,0.0,51,0.00,,,0.00,Wunderground v.1.15,2013-02-04 08:40:00,
2013-02-04 00:46:00,48.2,30.9,30.05,SW,236,0.0,0.0,51,0.00,,,0.00,Wunderground v.1.15,2013-02-04 08:46:00,
2013-02-04 00:52:00,48.3,30.5,30.05,SW,236,0.0,0.0,50,0.00,,,0.00,Wunderground v.1.15,2013-02-04 08:52:00,
2013-02-04 00:58:00,48.3,30.5,30.05,SW,236,0.0,1.0,50,0.00,,,0.00,Wunderground v.1.15,2013-02-04 08:58:00,
2013-02-04 01:04:00,48.3,30.5,30.05,SW,236,1.0,3.0,50,0.00,,,0.00,Wunderground v.1.15,2013-02-04 09:04:00,
2013-02-04 01:10:00,48.3,30.5,30.05,SW,236,1.0,2.0,50,0.00,,,0.00,Wunderground v.1.15,2013-02-04 09:10:00,
2013-02-04 01:16:00,48.2,30.4,30.05,SW,236,1.0,2.0,50,0.00,,,0.00,Wunderground v.1.15,2013-02-04 09:16:00,
2013-02-04 01:22:00,47.9,30.6,30.05,SW,236,1.0,4.0,51,0.00,,,0.00,Wunderground v.1.15,2013-02-04 09:22:00,
2013-02-04 01:28:00,47.6,29.9,30.05,SW,236,3.0,4.0,50,0.00,,,0.00,Wunderground v.1.15,2013-02-04 09:28:00,
2013-02-04 01:34:00,47.4,30.6,30.05,SW,236,3.0,4.0,52,0.00,,,0.00,Wunderground v.1.15,2013-02-04 09:34:00,
2013-02-04 01:40:00,47.3,30.1,30.05,SW,236,2.0,2.0,51,0.00,,,0.00,Wunderground v.1.15,2013-02-04 09:40:00,
2013-02-04 01:46:00,47.2,30.5,30.05,SW,236,1.0,2.0,52,0.00,,,0.00,Wunderground v.1.15,2013-02-04 09:46:00,
2013-02-04 01:52:00,47.2,30.0,30.05,SW,236,0.0,1.0,51,0.00,,,0.00,Wunderground v.1.15,2013-02-04 09:52:00,
2013-02-04 01:58:00,47.1,29.9,30.06,SW,236,1.0,3.0,51,0.00,,,0.00,Wunderground v.1.15,2013-02-04 09:58:00,
2013-02-04 02:04:00,47.2,30.0,30.06,SW,236,2.0,3.0,51,0.00,,,0.00,Wunderground v.1.15,2013-02-04 10:04:00,
2013-02-04 02:10:00,47.5,29.8,30.06,SW,236,2.0,3.0,50,0.00,,,0.00,Wunderground v.1.15,2013-02-04 10:10:00,
2013-02-04 02:16:00,47.8,29.5,30.06,SW,236,3.0,3.0,49,0.00,,,0.00,Wunderground v.1.15,2013-02-04 10:16:00,
2013-02-04 02:22:00,48.1,29.3,30.06,SW,236,3.0,4.0,48,0.00,,,0.00,Wunderground v.1.15,2013-02-04 10:22:00,
2013-02-04 02:28:00,48.2,28.9,30.06,SW,236,4.0,5.0,47,0.00,,,0.00,Wunderground v.1.15,2013-02-04 10:28:00,
2013-02-04 02:34:00,48.2,28.9,30.06,WSW,237,4.0,4.0,47,0.00,,,0.00,Wunderground v.1.15,2013-02-04 10:34:00,
2013-02-04 02:40:00,48.3,28.5,30.05,WSW,237,3.0,4.0,46,0.00,,,0.00,Wunderground v.1.15,2013-02-04 10:40:00,
2013-02-04 02:46:00,48.3,27.9,30.05,WSW,238,3.0,6.0,45,0.00,,,0.00,Wunderground v.1.15,2013-02-04 10:46:00,
2013-02-04 02:52:00,48.3,27.9,30.05,WSW,238,4.0,4.0,45,0.00,,,0.00,Wunderground v.1.15,2013-02-04 10:52:00,
2013-02-04 02:58:00,48.4,27.5,30.05,WSW,237,4.0,5.0,44,0.00,,,0.00,Wunderground v.1.15,2013-02-04 10:58:00,
2013-02-04 03:04:00,48.4,27.5,30.05,WSW,238,4.0,5.0,44,0.00,,,0.00,Wunderground v.1.15,2013-02-04 11:04:00,
2013-02-04 03:10:00,48.5,27.0,30.05,WSW,237,4.0,5.0,43,0.00,,,0.00,Wunderground v.1.15,2013-02-04 11:10:00,
2013-02-04 03:16:00,48.7,26.6,30.04,WSW,237,4.0,5.0,42,0.00,,,0.00,Wunderground v.1.15,2013-02-04 11:16:00,
2013-02-04 03:22:00,49.0,26.9,30.04,WSW,237,4.0,4.0,42,0.00,,,0.00,Wunderground v.1.15,2013-02-04 11:22:00,
2013-02-04 03:28:00,49.0,26.9,30.04,WSW,237,3.0,4.0,42,0.00,,,0.00,Wunderground v.1.15,2013-02-04 11:28:00,
2013-02-04 03:34:00,48.9,26.2,30.04,WSW,237,3.0,3.0,41,0.00,,,0.00,Wunderground v.1.15,2013-02-04 11:34:00,
2013-02-04 03:40:00,48.8,26.1,30.05,WSW,238,2.0,2.0,41,0.00,,,0.00,Wunderground v.1.15,2013-02-04 11:40:00,
2013-02-04 03:46:00,48.9,25.6,30.05,WSW,237,1.0,2.0,40,0.00,,,0.00,Wunderground v.1.15,2013-02-04 11:46:00,
2013-02-04 03:52:00,49.0,25.7,30.05,WSW,237,1.0,2.0,40,0.00,,,0.00,Wunderground v.1.15,2013-02-04 11:52:00,
2013-02-04 03:58:00,49.1,25.8,30.05,WSW,238,2.0,4.0,40,0.00,,,0.00,Wunderground v.1.15,2013-02-04 11:58:00,
2013-02-04 04:04:00,49.0,26.3,30.05,WSW,237,3.0,7.0,41,0.00,,,0.00,Wunderground v.1.15,2013-02-04 12:04:00,
2013-02-04 04:10:00,48.8,25.5,30.05,WSW,238,4.0,4.0,40,0.00,,,0.00,Wunderground v.1.15,2013-02-04 12:10:00,
2013-02-04 04:16:00,48.9,25.6,30.05,WSW,238,4.0,5.0,40,0.00,,,0.00,Wunderground v.1.15,2013-02-04 12:16:00,
2013-02-04 04:22:00,49.0,25.7,30.05,WSW,238,3.0,4.0,40,0.00,,,0.00,Wunderground v.1.15,2013-02-04 12:22:00,
2013-02-04 04:28:00,49.0,25.7,30.05,WSW,237,4.0,5.0,40,0.00,,,0.00,Wunderground v.1.15,2013-02-04 12:28:00,
2013-02-04 04:34:00,49.0,25.7,30.05,WSW,237,5.0,6.0,40,0.00,,,0.00,Wunderground v.1.15,2013-02-04 12:34:00,
2013-02-04 04:40:00,49.1,25.2,30.05,SW,236,5.0,5.0,39,0.00,,,0.00,Wunderground v.1.15,2013-02-04 12:40:00,
2013-02-04 04:46:00,49.2,25.3,30.05,SW,234,4.0,5.0,39,0.00,,,0.00,Wunderground v.1.15,2013-02-04 12:46:00,
2013-02-04 04:52:00,49.5,24.9,30.05,SW,232,4.0,5.0,38,0.00,,,0.00,Wunderground v.1.15,2013-02-04 12:52:00,
2013-02-04 04:58:00,49.7,25.1,30.05,SW,232,5.0,6.0,38,0.00,,,0.00,Wunderground v.1.15,2013-02-04 12:58:00,
2013-02-04 05:04:00,49.7,25.1,30.05,SW,230,5.0,6.0,38,0.00,,,0.00,Wunderground v.1.15,2013-02-04 13:04:00,
2013-02-04 05:10:00,49.7,25.1,30.05,SW,223,5.0,6.0,38,0.00,,,0.00,Wunderground v.1.15,2013-02-04 13:10:00,
2013-02-04 05:16:00,49.5,24.9,30.05,SW,223,5.0,6.0,38,0.00,,,0.00,Wunderground v.1.15,2013-02-04 13:16:00,
2013-02-04 05:22:00,49.5,24.3,30.05,SW,223,5.0,5.0,37,0.00,,,0.00,Wunderground v.1.15,2013-02-04 13:22:00,
2013-02-04 05:28:00,49.6,24.4,30.05,SW,223,5.0,5.0,37,0.00,,,0.00,Wunderground v.1.15,2013-02-04 13:28:00,
2013-02-04 05:34:00,49.7,24.5,30.05,SW,223,4.0,4.0,37,0.00,,,0.00,Wunderground v.1.15,2013-02-04 13:34:00,
2013-02-04 05:40:00,49.7,24.5,30.05,SW,223,3.0,3.0,37,0.00,,,0.00,Wunderground v.1.15,2013-02-04 13:40:00,
2013-02-04 05:46:00,49.7,24.5,30.05,SW,223,4.0,6.0,37,0.00,,,0.00,Wunderground v.1.15,2013-02-04 13:46:00,
2013-02-04 05:53:00,49.8,24.5,30.06,SW,233,5.0,6.0,37,0.00,,,0.00,Wunderground v.1.15,2013-02-04 13:53:00,
2013-02-04 05:58:00,49.9,24.6,30.05,SW,231,5.0,7.0,37,0.00,,,0.00,Wunderground v.1.15,2013-02-04 13:58:00,
2013-02-04 06:04:00,49.9,24.0,30.06,SW,228,6.0,6.0,36,0.00,,,0.00,Wunderground v.1.15,2013-02-04 14:04:00,
2013-02-04 06:10:00,49.9,24.6,30.06,SW,228,5.0,6.0,37,0.00,,,0.00,Wunderground v.1.15,2013-02-04 14:10:00,
2013-02-04 06:16:00,49.8,24.5,30.06,SW,228,5.0,6.0,37,0.00,,,0.00,Wunderground v.1.15,2013-02-04 14:16:00,
2013-02-04 06:22:00,49.6,24.4,30.06,SW,226,5.0,5.0,37,0.00,,,0.00,Wunderground v.1.15,2013-02-04 14:22:00,
2013-02-04 06:28:00,49.4,24.2,30.07,SW,227,4.0,5.0,37,0.00,,,0.00,Wunderground v.1.15,2013-02-04 14:28:00,
2013-02-04 06:34:00,49.1,23.9,30.07,SW,226,4.0,5.0,37,0.00,,,0.00,Wunderground v.1.15,2013-02-04 14:34:00,
2013-02-04 06:40:00,49.0,24.5,30.07,SW,226,4.0,4.0,38,0.00,,,0.00,Wunderground v.1.15,2013-02-04 14:40:00,
2013-02-04 06:46:00,48.8,23.6,30.07,SW,226,3.0,4.0,37,0.00,,,0.00,Wunderground v.1.15,2013-02-04 14:46:00,
2013-02-04 06:52:00,48.7,23.6,30.08,SW,229,4.0,7.0,37,0.00,,,0.00,Wunderground v.1.15,2013-02-04 14:52:00,
2013-02-04 06:58:00,48.7,23.6,30.08,SW,227,5.0,7.0,37,0.00,,,0.00,Wunderground v.1.15,2013-02-04 14:58:00,
2013-02-04 07:04:00,48.8,23.6,30.08,SW,227,5.0,6.0,37,0.00,,,0.00,Wunderground v.1.15,2013-02-04 15:04:00,
2013-02-04 07:10:00,49.0,23.8,30.08,SW,229,6.0,8.0,37,0.00,,,0.00,Wunderground v.1.15,2013-02-04 15:10:00,
2013-02-04 07:16:00,49.5,24.3,30.08,SW,229,6.0,10.0,37,0.00,,,0.00,Wunderground v.1.15,2013-02-04 15:16:00,
2013-02-04 07:22:00,50.2,24.2,30.08,SW,227,6.0,7.0,36,0.00,,,0.00,Wunderground v.1.15,2013-02-04 15:22:00,
2013-02-04 07:28:00,50.6,24.6,30.09,SW,227,5.0,7.0,36,0.00,,,0.00,Wunderground v.1.15,2013-02-04 15:28:00,
2013-02-04 07:34:00,51.1,24.4,30.09,SW,234,5.0,7.0,35,0.00,,,0.00,Wunderground v.1.15,2013-02-04 15:34:00,
2013-02-04 07:40:00,51.5,24.0,30.09,SW,229,7.0,7.0,34,0.00,,,0.00,Wunderground v.1.15,2013-02-04 15:40:00,
2013-02-04 07:46:00,52.2,24.6,30.09,SW,222,8.0,9.0,34,0.00,,,0.00,Wunderground v.1.15,2013-02-04 15:46:00,
2013-02-04 07:52:00,52.6,25.0,30.09,SW,221,6.0,7.0,34,0.00,,,0.00,Wunderground v.1.15,2013-02-04 15:52:00,
2013-02-04 07:58:00,53.0,25.3,30.09,SW,225,4.0,7.0,34,0.00,,,0.00,Wunderground v.1.15,2013-02-04 15:58:00,
2013-02-04 08:04:00,53.5,25.1,30.10,WSW,240,3.0,4.0,33,0.00,,,0.00,Wunderground v.1.15,2013-02-04 16:04:00,
2013-02-04 08:10:00,54.1,24.9,30.10,SW,234,4.0,5.0,32,0.00,,,0.00,Wunderground v.1.15,2013-02-04 16:10:00,
2013-02-04 08:16:00,54.5,25.2,30.10,SW,236,5.0,9.0,32,0.00,,,0.00,Wunderground v.1.15,2013-02-04 16:16:00,
2013-02-04 08:22:00,54.9,25.6,30.10,SW,236,4.0,6.0,32,0.00,,,0.00,Wunderground v.1.15,2013-02-04 16:22:00,
2013-02-04 08:28:00,55.3,25.1,30.11,SW,234,4.0,6.0,31,0.00,,,0.00,Wunderground v.1.15,2013-02-04 16:28:00,
2013-02-04 08:34:00,55.7,25.5,30.11,SW,234,3.0,4.0,31,0.00,,,0.00,Wunderground v.1.15,2013-02-04 16:34:00,
2013-02-04 08:40:00,56.3,26.0,30.11,SW,236,2.0,3.0,31,0.00,,,0.00,Wunderground v.1.15,2013-02-04 16:40:00,
2013-02-04 08:46:00,56.8,25.7,30.11,WSW,257,3.0,5.0,30,0.00,,,0.00,Wunderground v.1.15,2013-02-04 16:46:00,
2013-02-04 08:52:00,57.3,26.1,30.11,WSW,257,3.0,3.0,30,0.00,,,0.00,Wunderground v.1.15,2013-02-04 16:52:00,
2013-02-04 08:58:00,57.8,26.5,30.11,WSW,258,2.0,3.0,30,0.00,,,0.00,Wunderground v.1.15,2013-02-04 16:58:00,
2013-02-04 09:04:00,58.5,27.9,30.11,WSW,258,1.0,2.0,31,0.00,,,0.00,Wunderground v.1.15,2013-02-04 17:04:00,
2013-02-04 09:10:00,59.0,26.8,30.11,WSW,257,1.0,3.0,29,0.00,,,0.00,Wunderground v.1.15,2013-02-04 17:10:00,
2013-02-04 09:16:00,59.0,25.9,30.10,WSW,257,2.0,3.0,28,0.00,,,0.00,Wunderground v.1.15,2013-02-04 17:16:00,
2013-02-04 09:22:00,59.6,26.4,30.11,WSW,257,3.0,4.0,28,0.00,,,0.00,Wunderground v.1.15,2013-02-04 17:22:00,
2013-02-04 09:28:00,60.4,28.0,30.11,WSW,257,3.0,4.0,29,0.00,,,0.00,Wunderground v.1.15,2013-02-04 17:28:00,
2013-02-04 09:34:00,61.3,27.0,30.11,WSW,257,3.0,3.0,27,0.00,,,0.00,Wunderground v.1.15,2013-02-04 17:34:00,
2013-02-04 09:40:00,62.0,26.7,30.11,West,259,3.0,3.0,26,0.00,,,0.00,Wunderground v.1.15,2013-02-04 17:40:00,
2013-02-04 09:46:00,62.3,26.9,30.11,West,265,4.0,4.0,26,0.00,,,0.00,Wunderground v.1.15,2013-02-04 17:46:00,
2013-02-04 09:52:00,62.8,26.4,30.11,West,264,2.0,3.0,25,0.00,,,0.00,Wunderground v.1.15,2013-02-04 17:52:00,
2013-02-04 09:58:00,63.5,27.0,30.11,West,264,1.0,3.0,25,0.00,,,0.00,Wunderground v.1.15,2013-02-04 17:58:00,
2013-02-04 10:04:00,64.8,28.1,30.11,West,265,1.0,3.0,25,0.00,,,0.00,Wunderground v.1.15,2013-02-04 18:04:00,
2013-02-04 10:10:00,64.5,25.8,30.11,West,264,1.0,1.0,23,0.00,,,0.00,Wunderground v.1.15,2013-02-04 18:10:00,
2013-02-04 10:16:00,64.9,27.2,30.11,West,264,2.0,4.0,24,0.00,,,0.00,Wunderground v.1.15,2013-02-04 18:16:00,
2013-02-04 10:22:00,65.0,26.3,30.10,West,265,3.0,4.0,23,0.00,,,0.00,Wunderground v.1.15,2013-02-04 18:22:00,
2013-02-04 10:28:00,65.0,26.3,30.10,West,265,2.0,4.0,23,0.00,,,0.00,Wunderground v.1.15,2013-02-04 18:28:00,
2013-02-04 10:34:00,65.4,26.6,30.10,West,264,2.0,3.0,23,0.00,,,0.00,Wunderground v.1.15,2013-02-04 18:34:00,
2013-02-04 10:40:00,65.5,26.7,30.10,West,265,2.0,2.0,23,0.00,,,0.00,Wunderground v.1.15,2013-02-04 18:40:00,
2013-02-04 10:46:00,66.1,26.1,30.10,West,265,2.0,2.0,22,0.00,,,0.00,Wunderground v.1.15,2013-02-04 18:46:00,
2013-02-04 10:52:00,66.1,26.1,30.09,West,264,2.0,2.0,22,0.00,,,0.00,Wunderground v.1.15,2013-02-04 18:52:00,
2013-02-04 10:58:00,66.6,26.5,30.09,West,265,1.0,2.0,22,0.00,,,0.00,Wunderground v.1.15,2013-02-04 18:58:00,
2013-02-04 11:04:00,67.5,26.2,30.09,West,265,1.0,1.0,21,0.00,,,0.00,Wunderground v.1.15,2013-02-04 19:04:00,
2013-02-04 11:10:00,67.6,26.2,30.08,West,264,1.0,1.0,21,0.00,,,0.00,Wunderground v.1.15,2013-02-04 19:10:00,
2013-02-04 11:16:00,68.5,27.0,30.08,West,264,0.0,1.0,21,0.00,,,0.00,Wunderground v.1.15,2013-02-04 19:16:00,
2013-02-04 11:22:00,69.0,27.4,30.08,West,264,0.0,1.0,21,0.00,,,0.00,Wunderground v.1.15,2013-02-04 19:22:00,
2013-02-04 11:28:00,68.7,26.0,30.08,West,264,1.0,4.0,20,0.00,,,0.00,Wunderground v.1.15,2013-02-04 19:28:00,
2013-02-04 11:34:00,69.0,26.2,30.08,NNW,331,1.0,3.0,20,0.00,,,0.00,Wunderground v.1.15,2013-02-04 19:34:00,
2013-02-04 11:40:00,68.6,27.1,30.07,NNW,331,1.0,1.0,21,0.00,,,0.00,Wunderground v.1.15,2013-02-04 19:40:00,
2013-02-04 11:46:00,68.8,27.2,30.07,NNW,331,0.0,1.0,21,0.00,,,0.00,Wunderground v.1.15,2013-02-04 19:46:00,
2013-02-04 11:52:00,69.4,26.6,30.06,NNW,331,0.0,1.0,20,0.00,,,0.00,Wunderground v.1.15,2013-02-04 19:52:00,
2013-02-04 11:58:00,69.7,26.8,30.06,East,83,1.0,2.0,20,0.00,,,0.00,Wunderground v.1.15,2013-02-04 19:58:00,
2013-02-04 12:04:00,69.7,26.8,30.06,ESE,107,1.0,2.0,20,0.00,,,0.00,Wunderground v.1.15,2013-02-04 20:04:00,
2013-02-04 12:10:00,69.9,27.0,30.05,ESE,110,1.0,4.0,20,0.00,,,0.00,Wunderground v.1.15,2013-02-04 20:10:00,
2013-02-04 12:16:00,70.0,25.8,30.05,East,80,2.0,4.0,19,0.00,,,0.00,Wunderground v.1.15,2013-02-04 20:16:00,
2013-02-04 12:22:00,70.3,26.1,30.04,ENE,78,2.0,2.0,19,0.00,,,0.00,Wunderground v.1.15,2013-02-04 20:22:00,
2013-02-04 12:28:00,70.2,26.0,30.04,ENE,69,1.0,2.0,19,0.00,,,0.00,Wunderground v.1.15,2013-02-04 20:28:00,
2013-02-04 12:34:00,70.3,26.1,30.04,ENE,69,1.0,1.0,19,0.00,,,0.00,Wunderground v.1.15,2013-02-04 20:34:00,
2013-02-04 12:40:00,71.4,25.7,30.03,ENE,69,0.0,0.0,18,0.00,,,0.00,Wunderground v.1.15,2013-02-04 20:40:00,
2013-02-04 12:46:00,71.5,27.0,30.03,East,94,1.0,5.0,19,0.00,,,0.00,Wunderground v.1.15,2013-02-04 20:46:00,
2013-02-04 12:52:00,71.4,27.0,30.02,East,99,1.0,1.0,19,0.00,,,0.00,Wunderground v.1.15,2013-02-04 20:52:00,
2013-02-04 12:58:00,71.3,26.9,30.02,East,99,0.0,1.0,19,0.00,,,0.00,Wunderground v.1.15,2013-02-04 20:58:00,
2013-02-04 13:04:00,71.5,27.0,30.01,ESE,102,1.0,2.0,19,0.00,,,0.00,Wunderground v.1.15,2013-02-04 21:04:00,
2013-02-04 13:10:00,71.9,27.4,30.01,ESE,102,1.0,2.0,19,0.00,,,0.00,Wunderground v.1.15,2013-02-04 21:10:00,
2013-02-04 13:16:00,71.7,25.9,30.01,East,99,1.0,3.0,18,0.00,,,0.00,Wunderground v.1.15,2013-02-04 21:16:00,
2013-02-04 13:22:00,72.0,24.8,30.01,ESE,113,1.0,3.0,17,0.00,,,0.00,Wunderground v.1.15,2013-02-04 21:22:00,
2013-02-04 13:28:00,71.9,26.1,30.00,SE,125,2.0,3.0,18,0.00,,,0.00,Wunderground v.1.15,2013-02-04 21:28:00,
2013-02-04 13:34:00,72.5,26.5,30.00,SE,125,1.0,2.0,18,0.00,,,0.00,Wunderground v.1.15,2013-02-04 21:34:00,
2013-02-04 13:40:00,74.0,27.8,29.99,ESE,123,1.0,1.0,18,0.00,,,0.00,Wunderground v.1.15,2013-02-04 21:40:00,
2013-02-04 13:46:00,74.4,26.7,29.99,ESE,117,1.0,2.0,17,0.00,,,0.00,Wunderground v.1.15,2013-02-04 21:46:00,
2013-02-04 13:52:00,74.1,26.5,29.99,ESE,115,1.0,2.0,17,0.00,,,0.00,Wunderground v.1.15,2013-02-04 21:52:00,
2013-02-04 13:58:00,74.2,25.1,29.99,ESE,111,1.0,3.0,16,0.00,,,0.00,Wunderground v.1.15,2013-02-04 21:58:00,
2013-02-04 14:04:00,73.7,26.1,29.99,ESE,109,2.0,2.0,17,0.00,,,0.00,Wunderground v.1.15,2013-02-04 22:04:00,
2013-02-04 14:10:00,73.9,26.3,29.98,ESE,109,1.0,1.0,17,0.00,,,0.00,Wunderground v.1.15,2013-02-04 22:10:00,
2013-02-04 14:16:00,73.9,26.3,29.98,ESE,109,0.0,1.0,17,0.00,,,0.00,Wunderground v.1.15,2013-02-04 22:16:00,
2013-02-04 14:22:00,74.8,27.0,29.98,ESE,103,0.0,4.0,17,0.00,,,0.00,Wunderground v.1.15,2013-02-04 22:22:00,
2013-02-04 14:28:00,74.4,26.7,29.98,East,99,1.0,4.0,17,0.00,,,0.00,Wunderground v.1.15,2013-02-04 22:28:00,
2013-02-04 14:34:00,73.8,26.2,29.98,East,99,1.0,1.0,17,0.00,,,0.00,Wunderground v.1.15,2013-02-04 22:34:00,
2013-02-04 14:40:00,73.7,27.5,29.98,SE,127,1.0,1.0,18,0.00,,,0.00,Wunderground v.1.15,2013-02-04 22:40:00,
2013-02-04 14:46:00,74.6,26.9,29.98,SE,126,1.0,1.0,17,0.00,,,0.00,Wunderground v.1.15,2013-02-04 22:46:00,
2013-02-04 14:52:00,74.5,26.8,29.97,East,98,1.0,3.0,17,0.00,,,0.00,Wunderground v.1.15,2013-02-04 22:52:00,
2013-02-04 14:58:00,73.9,26.3,29.97,ENE,65,3.0,6.0,17,0.00,,,0.00,Wunderground v.1.15,2013-02-04 22:58:00,
2013-02-04 15:04:00,73.8,27.6,29.97,NE,47,3.0,3.0,18,0.00,,,0.00,Wunderground v.1.15,2013-02-04 23:04:00,
2013-02-04 15:10:00,73.8,27.6,29.97,ENE,70,2.0,2.0,18,0.00,,,0.00,Wunderground v.1.15,2013-02-04 23:10:00,
2013-02-04 15:16:00,73.5,27.4,29.97,ENE,72,1.0,2.0,18,0.00,,,0.00,Wunderground v.1.15,2013-02-04 23:16:00,
2013-02-04 15:22:00,73.6,27.4,29.98,ENE,69,1.0,2.0,18,0.00,,,0.00,Wunderground v.1.15,2013-02-04 23:22:00,
2013-02-04 15:28:00,73.5,26.0,29.98,ENE,75,2.0,5.0,17,0.00,,,0.00,Wunderground v.1.15,2013-02-04 23:28:00,
2013-02-04 15:34:00,72.9,25.5,29.98,ENE,74,3.0,5.0,17,0.00,,,0.00,Wunderground v.1.15,2013-02-04 23:34:00,
2013-02-04 15:40:00,72.9,26.9,29.98,East,88,2.0,2.0,18,0.00,,,0.00,Wunderground v.1.15,2013-02-04 23:40:00,
2013-02-04 15:46:00,73.0,27.0,29.98,East,80,2.0,6.0,18,0.00,,,0.00,Wunderground v.1.15,2013-02-04 23:46:00,
2013-02-04 15:52:00,72.6,26.6,29.98,East,96,3.0,4.0,18,0.00,,,0.00,Wunderground v.1.15,2013-02-04 23:52:00,
2013-02-04 15:58:00,72.4,26.5,29.97,ESE,107,2.0,4.0,18,0.00,,,0.00,Wunderground v.1.15,2013-02-04 23:58:00,
2013-02-04 16:04:00,72.2,26.3,29.97,ESE,111,3.0,3.0,18,0.00,,,0.00,Wunderground v.1.15,2013-02-05 00:04:00,
2013-02-04 16:10:00,71.9,26.1,29.97,ESE,110,3.0,3.0,18,0.00,,,0.00,Wunderground v.1.15,2013-02-05 00:10:00,
2013-02-04 16:16:00,71.6,25.8,29.97,ESE,107,2.0,3.0,18,0.00,,,0.00,Wunderground v.1.15,2013-02-05 00:16:00,
2013-02-04 16:22:00,71.3,25.6,29.97,ESE,107,1.0,2.0,18,0.00,,,0.00,Wunderground v.1.15,2013-02-05 00:22:00,
2013-02-04 16:28:00,71.0,25.3,29.97,ESE,107,1.0,3.0,18,0.00,,,0.00,Wunderground v.1.15,2013-02-05 00:28:00,
2013-02-04 16:34:00,70.6,25.0,29.97,East,88,1.0,2.0,18,0.00,,,0.00,Wunderground v.1.15,2013-02-05 00:34:00,
2013-02-04 16:40:00,70.1,24.6,29.97,East,87,2.0,2.0,18,0.00,,,0.00,Wunderground v.1.15,2013-02-05 00:40:00,
2013-02-04 16:46:00,69.7,24.3,29.97,ENE,60,3.0,5.0,18,0.00,,,0.00,Wunderground v.1.15,2013-02-05 00:46:00,
2013-02-04 16:52:00,69.5,24.1,29.97,ENE,70,4.0,4.0,18,0.00,,,0.00,Wunderground v.1.15,2013-02-05 00:52:00,
2013-02-04 16:58:00,69.1,23.8,29.97,ENE,73,5.0,5.0,18,0.00,,,0.00,Wunderground v.1.15,2013-02-05 00:58:00,
2013-02-04 17:04:00,68.5,24.6,29.97,ENE,74,4.0,5.0,19,0.00,,,0.00,Wunderground v.1.15,2013-02-05 01:04:00,
2013-02-04 17:10:00,68.0,24.2,29.97,ENE,74,3.0,3.0,19,0.00,,,0.00,Wunderground v.1.15,2013-02-05 01:10:00,
2013-02-04 17:16:00,67.4,23.7,29.97,ENE,77,3.0,4.0,19,0.00,,,0.00,Wunderground v.1.15,2013-02-05 01:16:00,
2013-02-04 19:30:00,57.5,22.8,29.99,SSW,196,5.0,6.0,26,0.00,,,0.00,Wunderground v.1.15,2013-02-05 03:30:00,
2013-02-04 19:36:00,57.3,22.7,29.99,SSW,196,6.0,7.0,26,0.00,,,0.00,Wunderground v.1.15,2013-02-05 03:36:00,
2013-02-04 19:42:00,57.1,22.5,29.99,SSW,198,4.0,5.0,26,0.00,,,0.00,Wunderground v.1.15,2013-02-05 03:42:00,
2013-02-04 19:48:00,56.9,23.2,29.99,SSW,198,4.0,5.0,27,0.00,,,0.00,Wunderground v.1.15,2013-02-05 03:48:00,
2013-02-04 19:54:00,56.8,23.1,30.00,SSW,198,2.0,4.0,27,0.00,,,0.00,Wunderground v.1.15,2013-02-05 03:54:00,
2013-02-04 20:00:00,56.7,23.0,30.00,SSW,198,2.0,4.0,27,0.00,,,0.00,Wunderground v.1.15,2013-02-05 04:00:00,
2013-02-04 20:06:00,56.5,22.9,30.00,SSW,198,2.0,4.0,27,0.00,,,0.00,Wunderground v.1.15,2013-02-05 04:06:00,
2013-02-04 20:14:00,56.1,23.4,30.00,SSW,200,3.0,5.0,28,0.00,,,0.00,Wunderground v.1.15,2013-02-05 04:14:00,
2013-02-04 20:20:00,55.9,23.2,30.00,SSW,202,5.0,5.0,28,0.00,,,0.00,Wunderground v.1.15,2013-02-05 04:20:00,
2013-02-04 20:26:00,55.7,23.1,30.00,SSW,210,6.0,7.0,28,0.00,,,0.00,Wunderground v.1.15,2013-02-05 04:26:00,
2013-02-04 20:32:00,55.7,23.9,30.00,SW,215,6.0,6.0,29,0.00,,,0.00,Wunderground v.1.15,2013-02-05 04:32:00,
2013-02-04 20:38:00,56.0,23.3,30.00,SW,215,6.0,6.0,28,0.00,,,0.00,Wunderground v.1.15,2013-02-05 04:38:00,
2013-02-04 20:44:00,56.1,23.4,30.00,SW,215,4.0,6.0,28,0.00,,,0.00,Wunderground v.1.15,2013-02-05 04:44:00,
2013-02-04 20:50:00,56.2,24.3,30.00,SW,214,4.0,4.0,29,0.00,,,0.00,Wunderground v.1.15,2013-02-05 04:50:00,
2013-02-04 20:56:00,56.1,24.2,30.00,SW,214,2.0,4.0,29,0.00,,,0.00,Wunderground v.1.15,2013-02-05 04:56:00,
2013-02-04 21:00:00,55.9,24.1,30.00,SW,214,1.0,1.0,29,0.00,,,0.00,Wunderground v.1.15,2013-02-05 05:00:00,
2013-02-04 21:02:00,55.8,24.0,30.01,SW,214,0.0,1.0,29,0.00,,,0.00,Wunderground v.1.15,2013-02-05 05:02:00,
2013-02-04 21:04:00,55.7,23.9,30.00,SW,214,0.0,1.0,29,0.00,,,0.00,Wunderground v.1.15,2013-02-05 05:04:00,
2013-02-04 21:10:00,55.1,23.4,30.01,WSW,238,1.0,3.0,29,0.00,,,0.00,Wunderground v.1.15,2013-02-05 05:10:00,
2013-02-04 21:16:00,54.3,23.5,30.01,WSW,245,3.0,4.0,30,0.00,,,0.00,Wunderground v.1.15,2013-02-05 05:16:00,
2013-02-04 21:18:00,54.1,23.3,30.01,WSW,245,3.0,4.0,30,0.00,,,0.00,Wunderground v.1.15,2013-02-05 05:18:00,
2013-02-04 21:24:00,53.4,22.7,30.00,WSW,246,2.0,3.0,30,0.00,,,0.00,Wunderground v.1.15,2013-02-05 05:24:00,
2013-02-04 21:30:00,52.9,23.0,30.00,WSW,246,1.0,1.0,31,0.00,,,0.00,Wunderground v.1.15,2013-02-05 05:30:00,
2013-02-04 21:36:00,52.4,22.6,30.01,WSW,245,0.0,1.0,31,0.00,,,0.00,Wunderground v.1.15,2013-02-05 05:36:00,
2013-02-04 21:42:00,52.1,22.3,30.00,WSW,245,0.0,0.0,31,0.00,,,0.00,Wunderground v.1.15,2013-02-05 05:42:00,
2013-02-04 21:48:00,51.8,22.8,30.01,WSW,246,0.0,0.0,32,0.00,,,0.00,Wunderground v.1.15,2013-02-05 05:48:00,
2013-02-04 21:54:00,51.6,22.7,30.01,WSW,245,0.0,0.0,32,0.00,,,0.00,Wunderground v.1.15,2013-02-05 05:54:00,
2013-02-04 22:00:00,51.4,23.2,30.01,WSW,248,0.0,0.0,33,0.00,,,0.00,Wunderground v.1.15,2013-02-05 06:00:00,
2013-02-04 22:06:00,51.3,23.1,30.01,WSW,248,0.0,0.0,33,0.00,,,0.00,Wunderground v.1.15,2013-02-05 06:06:00,
2013-02-04 22:12:00,51.2,23.0,30.01,WSW,248,0.0,0.0,33,0.00,,,0.00,Wunderground v.1.15,2013-02-05 06:12:00,
2013-02-04 22:18:00,51.0,22.9,30.01,WSW,248,0.0,0.0,33,0.00,,,0.00,Wunderground v.1.15,2013-02-05 06:18:00,
2013-02-04 22:24:00,50.8,22.7,30.01,WSW,248,0.0,0.0,33,0.00,,,0.00,Wunderground v.1.15,2013-02-05 06:24:00,
2013-02-04 22:30:00,50.6,23.2,30.01,WSW,248,0.0,0.0,34,0.00,,,0.00,Wunderground v.1.15,2013-02-05 06:30:00,
2013-02-04 22:36:00,50.5,23.1,30.01,WSW,248,0.0,0.0,34,0.00,,,0.00,Wunderground v.1.15,2013-02-05 06:36:00,
2013-02-04 22:42:00,50.2,22.9,30.01,WSW,249,0.0,0.0,34,0.00,,,0.00,Wunderground v.1.15,2013-02-05 06:42:00,
2013-02-04 22:48:00,50.0,23.4,30.01,WSW,249,0.0,0.0,35,0.00,,,0.00,Wunderground v.1.15,2013-02-05 06:48:00,
2013-02-04 22:54:00,49.9,23.3,30.01,WSW,249,0.0,3.0,35,0.00,,,0.00,Wunderground v.1.15,2013-02-05 06:54:00,
2013-02-04 23:00:00,49.8,23.2,30.01,WSW,253,1.0,1.0,35,0.00,,,0.00,Wunderground v.1.15,2013-02-05 07:00:00,
2013-02-04 23:06:00,49.7,23.1,30.01,WSW,253,0.0,1.0,35,0.00,,,0.00,Wunderground v.1.15,2013-02-05 07:06:00,
2013-02-04 23:12:00,49.7,23.1,30.01,WSW,253,0.0,0.0,35,0.00,,,0.00,Wunderground v.1.15,2013-02-05 07:12:00,
2013-02-04 23:18:00,49.6,23.0,30.01,WSW,253,0.0,2.0,35,0.00,,,0.00,Wunderground v.1.15,2013-02-05 07:18:00,
2013-02-04 23:24:00,49.2,22.7,30.02,WSW,253,0.0,0.0,35,0.00,,,0.00,Wunderground v.1.15,2013-02-05 07:24:00,
2013-02-04 23:30:00,48.8,23.0,30.01,WSW,253,1.0,1.0,36,0.00,,,0.00,Wunderground v.1.15,2013-02-05 07:30:00,
2013-02-04 23:36:00,48.5,22.7,30.02,WSW,253,1.0,1.0,36,0.00,,,0.00,Wunderground v.1.15,2013-02-05 07:36:00,
2013-02-04 23:42:00,48.1,23.0,30.01,WSW,253,0.0,1.0,37,0.00,,,0.00,Wunderground v.1.15,2013-02-05 07:42:00,
2013-02-04 23:48:00,47.9,23.5,30.02,WSW,253,1.0,1.0,38,0.00,,,0.00,Wunderground v.1.15,2013-02-05 07:48:00,
2013-02-04 23:54:00,47.7,23.3,30.02,WSW,252,2.0,4.0,38,0.00,,,0.00,Wunderground v.1.15,2013-02-05 07:54:00,